When you browse on this site, cookies collect data to enhance your experience and personalize the content and advertising you see.
Visit our Privacy Policy to learn more. By continuing to use the site, you agree to this use of cookies and data.
  • In Sweden
  • List of Countries
  • For 7 days
  • Water Temperature
  • Satellite Maps
  • Weather Map
  • Weather Widgets
  • user-avatar
    Login

    Hourly Weather Bagart

    Today, 24 February, Sunday

    Time Temperature Precipitation Wind Pressure Humidity
    00:00 -2°C° 0 mm 3 mps 771 mmHg 37%
    01:00 -3°C° 0 mm 4 mps 771 mmHg 36%
    02:00 -3°C° 0 mm 4 mps 771 mmHg 38%
    03:00 -2°C° 0 mm 3 mps 770 mmHg 40%
    04:00 -2°C° 0 mm 3 mps 770 mmHg 42%
    05:00 -2°C° 0 mm 3 mps 770 mmHg 43%
    06:00 -2°C° 0 mm 3 mps 769 mmHg 45%
    07:00 -2°C° 0 mm 3 mps 769 mmHg 46%
    08:00 -1°C° 0 mm 3 mps 769 mmHg 42%
    09:00 0°C° 0 mm 3 mps 769 mmHg 39%
    10:00 0°C° 0 mm 4 mps 769 mmHg 35%
    11:00 +3°C° 0 mm 4 mps 769 mmHg 36%
    12:00 +4°C° 0 mm 4 mps 769 mmHg 37%
    13:00 +5°C° 0 mm 4 mps 769 mmHg 38%
    14:00 +5°C° 0 mm 3 mps 768 mmHg 44%
    15:00 +4°C° 0 mm 3 mps 768 mmHg 50%
    16:00 +5°C° 0 mm 2 mps 768 mmHg 56%
    17:00 +3°C° 0 mm 3 mps 768 mmHg 60%
    18:00 +2°C° 0 mm 3 mps 768 mmHg 64%
    19:00 +1°C° 0 mm 3 mps 768 mmHg 68%
    20:00 0°C° 0 mm 3 mps 767 mmHg 68%
    21:00 0°C° 0 mm 3 mps 767 mmHg 68%
    22:00 0°C° 0 mm 3 mps 767 mmHg 68%
    23:00 0°C° 0 mm 3 mps 767 mmHg 72%

    Tomorrow, 25 February, Monday

    Time Temperature Precipitation Wind Pressure Humidity
    00:00 +1°C° 0 mm 2 mps 767 mmHg 77%
    01:00 -1°C° 0 mm 2 mps 767 mmHg 81%
    02:00 -1°C° 0 mm 2 mps 767 mmHg 86%
    03:00 -1°C° 0 mm 2 mps 767 mmHg 90%
    04:00 -1°C° 0 mm 2 mps 767 mmHg 94%
    05:00 0°C° 0 mm 3 mps 767 mmHg 95%
    06:00 0°C° 0 mm 3 mps 767 mmHg 96%
    07:00 0°C° 0 mm 3 mps 767 mmHg 97%
    08:00 +1°C° 0 mm 3 mps 767 mmHg 95%
    09:00 +1°C° 0 mm 3 mps 767 mmHg 94%
    10:00 +2°C° 0 mm 3 mps 767 mmHg 93%
    11:00 +3°C° 0 mm 3 mps 767 mmHg 90%
    12:00 +3°C° 0 mm 3 mps 767 mmHg 86%
    13:00 +4°C° 0 mm 3 mps 767 mmHg 83%
    14:00 +5°C° 0 mm 3 mps 766 mmHg 82%
    15:00 +5°C° 0 mm 3 mps 766 mmHg 80%
    16:00 +5°C° 0 mm 3 mps 766 mmHg 78%
    17:00 +4°C° 0 mm 3 mps 766 mmHg 81%
    18:00 +3°C° 0 mm 3 mps 766 mmHg 84%
    19:00 +2°C° 0 mm 3 mps 766 mmHg 86%
    20:00 +2°C° 0 mm 3 mps 766 mmHg 88%
    21:00 +1°C° 0 mm 3 mps 766 mmHg 90%
    22:00 +2°C° 0 mm 2 mps 765 mmHg 92%
    23:00 +2°C° 0 mm 2 mps 765 mmHg 93%

    Day after tomorrow, 26 February, Tuesday

    Time Temperature Precipitation Wind Pressure Humidity
    00:00 +1°C° 0 mm 3 mps 765 mmHg 94%
    01:00 0°C° 0 mm 3 mps 765 mmHg 95%
    02:00 +1°C° 0 mm 3 mps 764 mmHg 96%
    03:00 +1°C° 0 mm 3 mps 764 mmHg 96%
    04:00 +2°C° 0 mm 3 mps 763 mmHg 97%
    05:00 +2°C° 0 mm 3 mps 763 mmHg 96%
    06:00 +3°C° 0 mm 3 mps 763 mmHg 96%
    07:00 +3°C° 0 mm 4 mps 762 mmHg 95%
    08:00 +3°C° 0.1 mm 4 mps 762 mmHg 91%
    09:00 +4°C° 0.1 mm 4 mps 762 mmHg 88%
    10:00 +5°C° 0.1 mm 4 mps 762 mmHg 85%
    11:00 +5°C° 0 mm 4 mps 762 mmHg 81%
    12:00 +6°C° 0 mm 4 mps 763 mmHg 77%
    13:00 +6°C° 0 mm 5 mps 763 mmHg 74%
    14:00 +6°C° 0 mm 4 mps 763 mmHg 72%
    15:00 +7°C° 0 mm 4 mps 763 mmHg 69%
    16:00 +8°C° 0 mm 3 mps 763 mmHg 67%
    17:00 +7°C° 0 mm 3 mps 763 mmHg 73%
    18:00 +4°C° 0 mm 3 mps 763 mmHg 79%
    19:00 +4°C° 0 mm 2 mps 763 mmHg 85%
    20:00 +4°C° 0 mm 2 mps 764 mmHg 87%
    21:00 +3°C° 0 mm 2 mps 764 mmHg 88%
    22:00 +3°C° 0 mm 1 mps 764 mmHg 89%
    23:00 +3°C° 0 mm 1 mps 764 mmHg 89%

    27 February, Wednesday

    Time Temperature Precipitation Wind Pressure Humidity
    00:00 +3°C° 0 mm 1 mps 764 mmHg 89%
    01:00 +3°C° 0 mm 1 mps 764 mmHg 88%
    02:00 +3°C° 0 mm 1 mps 763 mmHg 88%
    03:00 +3°C° 0 mm 1 mps 763 mmHg 88%
    04:00 +2°C° 0 mm 2 mps 763 mmHg 88%
    05:00 +2°C° 0 mm 2 mps 762 mmHg 90%
    06:00 +1°C° 0 mm 2 mps 762 mmHg 92%
    07:00 +1°C° 0 mm 2 mps 762 mmHg 93%
    08:00 +3°C° 0 mm 2 mps 762 mmHg 87%
    09:00 +3°C° 0 mm 3 mps 761 mmHg 81%
    10:00 +5°C° 0 mm 3 mps 761 mmHg 76%
    11:00 +7°C° 0 mm 3 mps 761 mmHg 72%
    12:00 +9°C° 0 mm 3 mps 760 mmHg 67%
    13:00 +10°C° 0 mm 4 mps 760 mmHg 63%
    14:00 +10°C° 0 mm 4 mps 759 mmHg 64%
    15:00 +10°C° 0 mm 3 mps 759 mmHg 64%
    16:00 +10°C° 0 mm 3 mps 758 mmHg 64%
    17:00 +9°C° 0 mm 3 mps 758 mmHg 68%
    18:00 +8°C° 0 mm 3 mps 758 mmHg 72%
    19:00 +7°C° 0 mm 3 mps 757 mmHg 77%
    20:00 +5°C° 0 mm 3 mps 757 mmHg 79%
    21:00 +5°C° 0 mm 3 mps 757 mmHg 81%
    22:00 +4°C° 0 mm 3 mps 756 mmHg 83%
    23:00 +4°C° 0 mm 4 mps 756 mmHg 84%

    28 February, Thursday

    Time Temperature Precipitation Wind Pressure Humidity
    00:00 +4°C° 0 mm 4 mps 755 mmHg 86%
    01:00 +4°C° 0 mm 4 mps 755 mmHg 87%
    02:00 +3°C° 0 mm 4 mps 754 mmHg 88%
    03:00 +3°C° 0 mm 4 mps 754 mmHg 89%
    04:00 +3°C° 0 mm 4 mps 753 mmHg 90%
    05:00 +3°C° 0 mm 4 mps 752 mmHg 89%
    06:00 +3°C° 0 mm 4 mps 752 mmHg 89%
    07:00 +3°C° 0 mm 4 mps 751 mmHg 88%
    08:00 +3°C° 0 mm 5 mps 751 mmHg 82%
    09:00 +5°C° 0 mm 6 mps 751 mmHg 76%
    10:00 +7°C° 0 mm 6 mps 751 mmHg 70%
    11:00 +8°C° 0 mm 6 mps 751 mmHg 67%
    12:00 +9°C° 0 mm 7 mps 750 mmHg 64%
    13:00 +10°C° 0 mm 7 mps 750 mmHg 61%
    14:00 +9°C° 0 mm 7 mps 750 mmHg 63%
    15:00 +9°C° 0 mm 6 mps 751 mmHg 66%
    16:00 +8°C° 0 mm 6 mps 751 mmHg 68%
    17:00 +7°C° 0 mm 5 mps 751 mmHg 73%
    18:00 +6°C° 0 mm 5 mps 752 mmHg 77%
    19:00 +5°C° 0 mm 4 mps 752 mmHg 82%
    20:00 +4°C° 0 mm 4 mps 752 mmHg 84%
    21:00 +3°C° 0 mm 3 mps 752 mmHg 87%
    22:00 +3°C° 0 mm 3 mps 753 mmHg 90%
    23:00 +2°C° 0 mm 3 mps 753 mmHg 91%

    1 March, Friday

    Time Temperature Precipitation Wind Pressure Humidity
    00:00 +2°C° 0 mm 3 mps 753 mmHg 93%
    01:00 +2°C° 0 mm 3 mps 753 mmHg 94%
    02:00 +1°C° 0 mm 3 mps 753 mmHg 93%
    03:00 +1°C° 0 mm 3 mps 753 mmHg 92%
    04:00 +1°C° 0 mm 3 mps 753 mmHg 90%
    05:00 0°C° 0 mm 3 mps 754 mmHg 88%
    06:00 0°C° 0 mm 3 mps 754 mmHg 86%
    07:00 0°C° 0 mm 3 mps 754 mmHg 84%
    08:00 +1°C° 0 mm 3 mps 755 mmHg 77%
    09:00 +2°C° 0 mm 3 mps 755 mmHg 71%
    10:00 +4°C° 0 mm 3 mps 755 mmHg 64%
    11:00 +5°C° 0 mm 4 mps 756 mmHg 60%
    12:00 +5°C° 0 mm 4 mps 756 mmHg 56%
    13:00 +6°C° 0 mm 4 mps 756 mmHg 53%
    14:00 +6°C° 0 mm 4 mps 756 mmHg 52%
    15:00 +5°C° 0 mm 4 mps 756 mmHg 51%
    16:00 +5°C° 0 mm 4 mps 757 mmHg 51%
    17:00 +4°C° 0 mm 3 mps 757 mmHg 56%
    18:00 +2°C° 0 mm 3 mps 757 mmHg 61%
    19:00 +2°C° 0 mm 2 mps 758 mmHg 67%
    20:00 +2°C° 0 mm 2 mps 758 mmHg 71%
    21:00 +1°C° 0 mm 2 mps 758 mmHg 75%
    22:00 -1°C° 0 mm 2 mps 759 mmHg 79%
    23:00 -1°C° 0 mm 2 mps 759 mmHg 80%
    Show more